Location: Caltech
(34.1382°N, 118.1253°W)
Time: 07:07:07
(UTC-07:00)

Iridium 68 - Visible Passes

Search period start: 26 July 2016 00:00
Search period end: 05 August 2016 00:00
Orbit: 776 x 779 km, 86.4° (Epoch: 25 July)

Date Brightness Start Highest point End Pass type
(mag) Time Alt. Az. Time Alt. Az. Time Alt. Az.
26 Jul 8.6 03:29:56 10° ESE 03:33:06 16° E 03:36:17 10° NE visible
26 Jul 6.4 05:08:24 10° SSW 05:13:22 45° W 05:18:22 10° NNW visible
27 Jul 6.0 04:34:40 10° S 04:39:48 88° W 04:45:03 10° N visible
28 Jul 6.9 04:01:48 12° SSE 04:06:22 47° E 04:11:21 10° NNE visible
29 Jul 8.0 03:28:55 10° SE 03:33:03 24° E 03:37:11 10° NNE visible
29 Jul 6.9 05:09:23 12° SW 05:13:33 30° W 05:18:08 10° NNW visible
30 Jul 8.7 02:57:44 10° ESE 02:59:50 12° E 03:01:57 10° NE visible
30 Jul 6.1 04:36:28 21° SSW 04:39:56 59° W 04:45:05 10° N visible
31 Jul 6.2 04:03:30 26° SSE 04:06:25 71° E 04:11:37 10° N visible
01 Aug 7.3 03:30:32 23° SE 03:33:02 36° E 03:37:46 10° NNE visible
01 Aug 7.4 05:11:01 14° WSW 05:13:47 21° W 05:17:39 10° NNW visible
02 Aug 8.2 02:57:31 15° ESE 02:59:45 19° E 03:03:19 10° NE visible
02 Aug 6.5 04:38:01 27° SW 04:40:06 39° W 04:44:58 10° NNW visible
03 Aug 5.9 04:04:59 47° SSW 04:06:31 77° W 04:11:44 10° N visible
04 Aug 6.6 03:31:57 45° SE 03:33:03 54° E 03:38:08 10° NNE visible
04 Aug 7.8 05:12:26 12° W 05:14:05 14° WNW 05:16:41 10° NW visible
